contact:dominique.lefevre@mio.osupytheas.fr, maurice.libes@osupytheas.fr, didier.mallarino@osupytheas.fr
Project:EMSO http://www.emso-fr.org/EMSO-France
Depth: 2436.0 m
Title:EMSO Ligure Ouest : Data MII capteur OXYGEN
DateTime,Latitude,Longitude,Optode-Type,Optode_Serial,Oxygen,Saturation_Oxygen,Temperature
DateTime,Latitude,Longitude,Optode-Type,Optode_Serial,µmol.l-1,%,degC
2017-10-20T00:01:45,42.805,6.029,4330,1995,199.922,61.135,13.285
2017-10-20T00:04:45,42.805,6.029,4330,1995,199.910,61.131,13.285
2017-10-20T00:07:45,42.805,6.029,4330,1995,199.808,61.100,13.285
2017-10-20T00:10:45,42.805,6.029,4330,1995,199.775,61.090,13.285
2017-10-20T00:13:45,42.805,6.029,4330,1995,199.762,61.086,13.285
2017-10-20T00:16:45,42.805,6.029,4330,1995,199.744,61.081,13.285
2017-10-20T00:19:45,42.805,6.029,4330,1995,199.750,61.082,13.285
2017-10-20T00:22:45,42.805,6.029,4330,1995,199.833,61.108,13.285
2017-10-20T00:25:45,42.805,6.029,4330,1995,199.816,61.103,13.285
2017-10-20T00:28:45,42.805,6.029,4330,1995,199.792,61.095,13.285
2017-10-20T00:31:45,42.805,6.029,4330,1995,199.749,61.082,13.285
2017-10-20T00:34:45,42.805,6.029,4330,1995,199.667,61.057,13.285
2017-10-20T00:37:45,42.805,6.029,4330,1995,199.609,61.039,13.285
2017-10-20T00:40:45,42.805,6.029,4330,1995,199.591,61.034,13.285
2017-10-20T00:43:45,42.805,6.029,4330,1995,199.553,61.022,13.285
2017-10-20T00:46:45,42.805,6.029,4330,1995,199.587,61.033,13.285
2017-10-20T00:49:45,42.805,6.029,4330,1995,199.507,61.008,13.285
2017-10-20T00:52:45,42.805,6.029,4330,1995,199.535,61.017,13.285
2017-10-20T00:55:45,42.805,6.029,4330,1995,199.633,61.047,13.285
2017-10-20T00:58:45,42.805,6.029,4330,1995,199.686,61.063,13.285
2017-10-20T01:01:45,42.805,6.029,4330,1995,199.582,61.031,13.285
2017-10-20T01:04:45,42.805,6.029,4330,1995,199.591,61.034,13.285
2017-10-20T01:07:45,42.805,6.029,4330,1995,199.591,61.034,13.285
2017-10-20T01:10:45,42.805,6.029,4330,1995,199.614,61.041,13.285
2017-10-20T01:13:45,42.805,6.029,4330,1995,199.636,61.048,13.285
2017-10-20T01:16:45,42.805,6.029,4330,1995,199.636,61.048,13.285
2017-10-20T01:19:45,42.805,6.029,4330,1995,199.652,61.052,13.285
2017-10-20T01:22:45,42.805,6.029,4330,1995,199.578,61.030,13.285
2017-10-20T01:25:45,42.805,6.029,4330,1995,199.575,61.029,13.285
2017-10-20T01:28:45,42.805,6.029,4330,1995,199.581,61.031,13.285
2017-10-20T01:31:45,42.805,6.029,4330,1995,199.663,61.056,13.285
2017-10-20T01:34:45,42.805,6.029,4330,1995,199.645,61.050,13.285
2017-10-20T01:37:45,42.805,6.029,4330,1995,199.585,61.032,13.285
2017-10-20T01:40:45,42.805,6.029,4330,1995,199.711,61.071,13.285
2017-10-20T01:43:45,42.805,6.029,4330,1995,199.663,61.056,13.285
2017-10-20T01:46:45,42.805,6.029,4330,1995,199.630,61.046,13.285
2017-10-20T01:49:45,42.805,6.029,4330,1995,199.684,61.063,13.285
2017-10-20T01:52:45,42.805,6.029,4330,1995,199.647,61.051,13.285
2017-10-20T01:55:45,42.805,6.029,4330,1995,199.697,61.067,13.285
2017-10-20T01:58:45,42.805,6.029,4330,1995,199.611,61.040,13.285
2017-10-20T02:01:45,42.805,6.029,4330,1995,199.655,61.054,13.285
2017-10-20T02:04:45,42.805,6.029,4330,1995,199.543,61.019,13.285
2017-10-20T02:07:45,42.805,6.029,4330,1995,199.459,60.994,13.285
2017-10-20T02:10:45,42.805,6.029,4330,1995,199.430,60.985,13.286
2017-10-20T02:13:45,42.805,6.029,4330,1995,199.344,60.959,13.286
2017-10-20T02:16:45,42.805,6.029,4330,1995,199.347,60.960,13.285
2017-10-20T02:19:45,42.805,6.029,4330,1995,199.468,60.996,13.285
2017-10-20T02:22:45,42.805,6.029,4330,1995,199.467,60.996,13.286
2017-10-20T02:25:45,42.805,6.029,4330,1995,199.427,60.984,13.285
2017-10-20T02:28:45,42.805,6.029,4330,1995,199.462,60.995,13.285
2017-10-20T02:31:45,42.805,6.029,4330,1995,199.474,60.998,13.285
2017-10-20T02:34:45,42.805,6.029,4330,1995,199.579,61.031,13.286
2017-10-20T02:37:45,42.805,6.029,4330,1995,199.473,60.998,13.286
2017-10-20T02:40:45,42.805,6.029,4330,1995,199.447,60.990,13.285
2017-10-20T02:43:45,42.805,6.029,4330,1995,199.380,60.970,13.286
2017-10-20T02:46:45,42.805,6.029,4330,1995,199.428,60.985,13.285
2017-10-20T02:49:45,42.805,6.029,4330,1995,199.406,60.978,13.285
2017-10-20T02:52:45,42.805,6.029,4330,1995,199.438,60.988,13.285
2017-10-20T02:55:45,42.805,6.029,4330,1995,199.401,60.976,13.286
2017-10-20T02:58:45,42.805,6.029,4330,1995,199.323,60.952,13.285
2017-10-20T03:01:45,42.805,6.029,4330,1995,199.329,60.954,13.286
2017-10-20T03:04:45,42.805,6.029,4330,1995,199.315,60.950,13.286
2017-10-20T03:07:45,42.805,6.029,4330,1995,199.308,60.948,13.286
2017-10-20T03:10:45,42.805,6.029,4330,1995,199.327,60.954,13.286
2017-10-20T03:13:45,42.805,6.029,4330,1995,199.245,60.929,13.286
2017-10-20T03:16:45,42.805,6.029,4330,1995,199.166,60.904,13.286
2017-10-20T03:19:45,42.805,6.029,4330,1995,199.040,60.866,13.286
2017-10-20T03:22:45,42.805,6.029,4330,1995,199.059,60.872,13.286
2017-10-20T03:25:45,42.805,6.029,4330,1995,199.292,60.943,13.286
2017-10-20T03:28:45,42.805,6.029,4330,1995,199.203,60.916,13.286
2017-10-20T03:31:45,42.805,6.029,4330,1995,199.338,60.957,13.286
2017-10-20T03:34:45,42.805,6.029,4330,1995,199.145,60.898,13.286
2017-10-20T03:37:45,42.805,6.029,4330,1995,199.054,60.870,13.286
2017-10-20T03:40:45,42.805,6.029,4330,1995,199.009,60.856,13.286
2017-10-20T03:43:45,42.805,6.029,4330,1995,199.091,60.882,13.286
2017-10-20T03:46:45,42.805,6.029,4330,1995,199.157,60.902,13.286
2017-10-20T03:49:45,42.805,6.029,4330,1995,199.151,60.900,13.286
2017-10-20T03:52:45,42.805,6.029,4330,1995,198.925,60.831,13.286
2017-10-20T03:55:45,42.805,6.029,4330,1995,199.184,60.910,13.286
2017-10-20T03:58:45,42.805,6.029,4330,1995,199.192,60.912,13.286
2017-10-20T04:01:45,42.805,6.029,4330,1995,199.117,60.890,13.286
2017-10-20T04:04:45,42.805,6.029,4330,1995,199.173,60.907,13.286
2017-10-20T04:07:45,42.805,6.029,4330,1995,199.102,60.885,13.286
2017-10-20T04:10:45,42.805,6.029,4330,1995,199.112,60.888,13.286
2017-10-20T04:13:45,42.805,6.029,4330,1995,199.027,60.862,13.286
2017-10-20T04:16:45,42.805,6.029,4330,1995,198.992,60.852,13.286
2017-10-20T04:19:45,42.805,6.029,4330,1995,198.955,60.840,13.286
2017-10-20T04:22:45,42.805,6.029,4330,1995,198.905,60.825,13.286
2017-10-20T04:25:45,42.805,6.029,4330,1995,198.715,60.767,13.286
2017-10-20T04:28:45,42.805,6.029,4330,1995,198.800,60.793,13.286
2017-10-20T04:31:45,42.805,6.029,4330,1995,198.905,60.825,13.286
2017-10-20T04:34:45,42.805,6.029,4330,1995,198.937,60.835,13.286
2017-10-20T04:37:45,42.805,6.029,4330,1995,198.959,60.841,13.286
2017-10-20T04:40:45,42.805,6.029,4330,1995,198.973,60.846,13.286
2017-10-20T04:43:45,42.805,6.029,4330,1995,198.932,60.833,13.286
2017-10-20T04:46:45,42.805,6.029,4330,1995,198.887,60.820,13.286
2017-10-20T04:49:45,42.805,6.029,4330,1995,198.774,60.785,13.286
2017-10-20T04:52:45,42.805,6.029,4330,1995,198.699,60.763,13.286
2017-10-20T04:55:45,42.805,6.029,4330,1995,198.561,60.721,13.286
2017-10-20T04:58:45,42.805,6.029,4330,1995,198.385,60.667,13.287
2017-10-20T05:01:45,42.805,6.029,4330,1995,198.121,60.587,13.287
2017-10-20T05:04:45,42.805,6.029,4330,1995,198.200,60.610,13.287
2017-10-20T05:07:45,42.805,6.029,4330,1995,198.113,60.584,13.287
2017-10-20T05:10:45,42.805,6.029,4330,1995,197.996,60.548,13.287
2017-10-20T05:13:45,42.805,6.029,4330,1995,198.055,60.566,13.287
2017-10-20T05:16:45,42.805,6.029,4330,1995,198.078,60.573,13.287
2017-10-20T05:19:45,42.805,6.029,4330,1995,198.232,60.620,13.287
2017-10-20T05:22:45,42.805,6.029,4330,1995,198.229,60.620,13.287
2017-10-20T05:25:45,42.805,6.029,4330,1995,198.082,60.575,13.287
2017-10-20T05:28:45,42.805,6.029,4330,1995,197.742,60.471,13.287
2017-10-20T05:31:45,42.805,6.029,4330,1995,197.570,60.418,13.287
2017-10-20T05:34:45,42.805,6.029,4330,1995,197.424,60.374,13.287
2017-10-20T05:37:45,42.805,6.029,4330,1995,197.427,60.375,13.287
2017-10-20T05:40:45,42.805,6.029,4330,1995,197.384,60.362,13.288
2017-10-20T05:43:45,42.805,6.029,4330,1995,197.343,60.350,13.288
2017-10-20T05:46:45,42.805,6.029,4330,1995,197.358,60.354,13.288
2017-10-20T05:49:45,42.805,6.029,4330,1995,197.591,60.425,13.287
2017-10-20T05:52:45,42.805,6.029,4330,1995,197.622,60.434,13.287
2017-10-20T05:55:44,42.805,6.029,4330,1995,197.396,60.366,13.288
2017-10-20T05:58:44,42.805,6.029,4330,1995,197.245,60.321,13.289
2017-10-20T06:01:44,42.805,6.029,4330,1995,197.284,60.335,13.290
2017-10-20T06:04:44,42.805,6.029,4330,1995,197.178,60.303,13.290
2017-10-20T06:07:44,42.805,6.029,4330,1995,197.108,60.279,13.288
2017-10-20T06:10:44,42.805,6.029,4330,1995,197.143,60.289,13.288
2017-10-20T06:13:44,42.805,6.029,4330,1995,197.029,60.255,13.289
2017-10-20T06:16:44,42.805,6.029,4330,1995,196.880,60.211,13.290
2017-10-20T06:19:44,42.805,6.029,4330,1995,196.594,60.122,13.289
2017-10-20T06:22:44,42.805,6.029,4330,1995,196.431,60.072,13.288
2017-10-20T06:25:44,42.805,6.029,4330,1995,196.527,60.103,13.290
2017-10-20T06:28:44,42.805,6.029,4330,1995,196.464,60.083,13.289
2017-10-20T06:31:44,42.805,6.029,4330,1995,196.447,60.079,13.290
2017-10-20T06:34:44,42.805,6.029,4330,1995,196.451,60.080,13.290
2017-10-20T06:37:44,42.805,6.029,4330,1995,196.667,60.146,13.290
2017-10-20T06:40:44,42.805,6.029,4330,1995,196.218,60.012,13.292
2017-10-20T06:43:44,42.805,6.029,4330,1995,196.044,59.957,13.291
2017-10-20T06:46:44,42.805,6.029,4330,1995,196.586,60.121,13.290
2017-10-20T06:49:44,42.805,6.029,4330,1995,196.767,60.176,13.289
2017-10-20T06:52:44,42.805,6.029,4330,1995,197.035,60.260,13.291
2017-10-20T06:55:44,42.805,6.029,4330,1995,197.089,60.274,13.289
2017-10-20T06:58:44,42.805,6.029,4330,1995,196.882,60.211,13.289
2017-10-20T07:01:44,42.805,6.029,4330,1995,196.677,60.148,13.289
2017-10-20T07:04:44,42.805,6.029,4330,1995,196.658,60.144,13.290
2017-10-20T07:07:44,42.805,6.029,4330,1995,196.668,60.146,13.290
2017-10-20T07:10:44,42.805,6.029,4330,1995,196.882,60.211,13.289
2017-10-20T07:13:44,42.805,6.029,4330,1995,197.239,60.319,13.288
2017-10-20T07:16:44,42.805,6.029,4330,1995,197.143,60.291,13.289
2017-10-20T07:19:44,42.805,6.029,4330,1995,196.678,60.149,13.289
2017-10-20T07:22:44,42.805,6.029,4330,1995,196.481,60.090,13.290
2017-10-20T07:25:44,42.805,6.029,4330,1995,196.333,60.044,13.290
2017-10-20T07:28:44,42.805,6.029,4330,1995,196.054,59.960,13.291
2017-10-20T07:31:44,42.805,6.029,4330,1995,196.110,59.975,13.290
2017-10-20T07:34:44,42.805,6.029,4330,1995,195.979,59.937,13.291
2017-10-20T07:37:44,42.805,6.029,4330,1995,195.874,59.903,13.289
2017-10-20T07:40:44,42.805,6.029,4330,1995,196.304,60.033,13.289
2017-10-20T07:43:44,42.805,6.029,4330,1995,196.428,60.073,13.290
2017-10-20T07:46:44,42.805,6.029,4330,1995,196.176,59.997,13.291
2017-10-20T07:49:44,42.805,6.029,4330,1995,195.688,59.847,13.290
2017-10-20T07:52:44,42.805,6.029,4330,1995,195.640,59.832,13.290
2017-10-20T07:55:44,42.805,6.029,4330,1995,195.567,59.810,13.291
2017-10-20T07:58:44,42.805,6.029,4330,1995,195.461,59.780,13.292
2017-10-20T08:01:44,42.805,6.029,4330,1995,195.355,59.748,13.292
2017-10-20T08:04:44,42.805,6.029,4330,1995,195.365,59.750,13.291
2017-10-20T08:07:44,42.805,6.029,4330,1995,195.529,59.797,13.289
2017-10-20T08:10:44,42.805,6.029,4330,1995,195.727,59.859,13.290
2017-10-20T08:13:44,42.805,6.029,4330,1995,195.950,59.926,13.289
2017-10-20T08:16:44,42.805,6.029,4330,1995,196.041,59.953,13.289
2017-10-20T08:19:44,42.805,6.029,4330,1995,196.300,60.032,13.288
2017-10-20T08:22:44,42.805,6.029,4330,1995,196.317,60.037,13.289
2017-10-20T08:25:44,42.805,6.029,4330,1995,196.593,60.121,13.288
2017-10-20T08:28:44,42.805,6.029,4330,1995,196.888,60.212,13.288
2017-10-20T08:31:44,42.805,6.029,4330,1995,196.951,60.231,13.289
2017-10-20T08:34:44,42.805,6.029,4330,1995,196.864,60.204,13.288
2017-10-20T08:37:44,42.805,6.029,4330,1995,196.920,60.221,13.288
2017-10-20T08:40:44,42.805,6.029,4330,1995,196.977,60.238,13.288
2017-10-20T08:43:44,42.805,6.029,4330,1995,197.029,60.254,13.288
2017-10-20T08:46:44,42.805,6.029,4330,1995,197.066,60.266,13.288
2017-10-20T08:49:44,42.805,6.029,4330,1995,196.818,60.190,13.288
2017-10-20T08:52:44,42.805,6.029,4330,1995,196.712,60.158,13.288
2017-10-20T08:55:44,42.805,6.029,4330,1995,196.703,60.155,13.288
2017-10-20T08:58:44,42.805,6.029,4330,1995,196.675,60.146,13.288
2017-10-20T09:01:44,42.805,6.029,4330,1995,196.556,60.110,13.288
2017-10-20T09:04:44,42.805,6.029,4330,1995,196.787,60.180,13.288
2017-10-20T09:07:44,42.805,6.029,4330,1995,196.792,60.182,13.288
2017-10-20T09:10:44,42.805,6.029,4330,1995,196.633,60.134,13.288
2017-10-20T09:13:44,42.805,6.029,4330,1995,196.871,60.206,13.288
2017-10-20T09:16:44,42.805,6.029,4330,1995,196.748,60.168,13.288
2017-10-20T09:19:44,42.805,6.029,4330,1995,196.807,60.186,13.288
2017-10-20T09:22:44,42.805,6.029,4330,1995,196.919,60.221,13.288
2017-10-20T09:25:44,42.805,6.029,4330,1995,196.892,60.212,13.287
2017-10-20T09:28:44,42.805,6.029,4330,1995,196.719,60.160,13.288
2017-10-20T09:31:44,42.805,6.029,4330,1995,196.453,60.077,13.288
2017-10-20T09:34:44,42.805,6.029,4330,1995,196.129,59.978,13.288
2017-10-20T09:37:44,42.805,6.029,4330,1995,196.020,59.945,13.287
2017-10-20T09:40:44,42.805,6.029,4330,1995,196.010,59.942,13.287
2017-10-20T09:43:44,42.805,6.029,4330,1995,196.303,60.031,13.287
2017-10-20T09:46:44,42.805,6.029,4330,1995,196.504,60.092,13.287
2017-10-20T09:49:44,42.805,6.029,4330,1995,196.394,60.059,13.287
2017-10-20T09:52:44,42.805,6.029,4330,1995,196.149,59.984,13.288
2017-10-20T09:55:44,42.805,6.029,4330,1995,196.240,60.011,13.287
2017-10-20T09:58:44,42.805,6.029,4330,1995,196.592,60.119,13.287
2017-10-20T10:01:44,42.805,6.029,4330,1995,196.617,60.127,13.287
2017-10-20T10:04:44,42.805,6.029,4330,1995,196.516,60.096,13.287
2017-10-20T10:07:44,42.805,6.029,4330,1995,196.544,60.104,13.287
2017-10-20T10:10:44,42.805,6.029,4330,1995,196.576,60.114,13.287
2017-10-20T10:13:44,42.805,6.029,4330,1995,196.408,60.062,13.286
2017-10-20T10:16:44,42.805,6.029,4330,1995,196.364,60.050,13.287
2017-10-20T10:19:44,42.805,6.029,4330,1995,196.627,60.129,13.287
2017-10-20T10:22:44,42.805,6.029,4330,1995,196.808,60.184,13.286
2017-10-20T10:25:44,42.805,6.029,4330,1995,196.840,60.195,13.287
2017-10-20T10:28:44,42.805,6.029,4330,1995,197.035,60.254,13.286
2017-10-20T10:31:44,42.805,6.029,4330,1995,197.053,60.259,13.286
2017-10-20T10:34:44,42.805,6.029,4330,1995,197.076,60.266,13.286
2017-10-20T10:37:44,42.805,6.029,4330,1995,197.133,60.283,13.286
2017-10-20T10:40:44,42.805,6.029,4330,1995,197.210,60.307,13.286
2017-10-20T10:43:44,42.805,6.029,4330,1995,197.080,60.267,13.286
2017-10-20T10:46:44,42.805,6.029,4330,1995,197.268,60.324,13.286
2017-10-20T10:49:44,42.805,6.029,4330,1995,197.279,60.328,13.286
2017-10-20T10:52:44,42.805,6.029,4330,1995,197.297,60.333,13.286
2017-10-20T10:55:44,42.805,6.029,4330,1995,197.374,60.357,13.286
2017-10-20T10:58:44,42.805,6.029,4330,1995,197.367,60.355,13.286
2017-10-20T11:01:44,42.805,6.029,4330,1995,197.468,60.386,13.286
2017-10-20T11:04:44,42.805,6.029,4330,1995,197.441,60.378,13.286
2017-10-20T11:07:44,42.805,6.029,4330,1995,197.464,60.385,13.286
2017-10-20T11:10:44,42.805,6.029,4330,1995,197.465,60.385,13.286
2017-10-20T11:13:44,42.805,6.029,4330,1995,197.437,60.376,13.286
2017-10-20T11:16:44,42.805,6.029,4330,1995,197.506,60.398,13.286
2017-10-20T11:19:44,42.805,6.029,4330,1995,197.910,60.521,13.286
2017-10-20T11:22:44,42.805,6.029,4330,1995,197.781,60.481,13.286
2017-10-20T11:25:44,42.805,6.029,4330,1995,197.755,60.474,13.286
2017-10-20T11:28:44,42.805,6.029,4330,1995,197.695,60.455,13.286
2017-10-20T11:31:44,42.805,6.029,4330,1995,197.656,60.443,13.286
2017-10-20T11:34:44,42.805,6.029,4330,1995,197.547,60.410,13.286
2017-10-20T11:37:44,42.805,6.029,4330,1995,197.573,60.418,13.286
2017-10-20T11:40:44,42.805,6.029,4330,1995,197.649,60.441,13.286
2017-10-20T11:43:44,42.805,6.029,4330,1995,197.708,60.459,13.286
2017-10-20T11:46:44,42.805,6.029,4330,1995,197.783,60.482,13.286
2017-10-20T11:49:44,42.805,6.029,4330,1995,197.873,60.509,13.286
2017-10-20T11:52:44,42.805,6.029,4330,1995,197.681,60.451,13.286
2017-10-20T11:55:44,42.805,6.029,4330,1995,197.604,60.427,13.286
2017-10-20T11:58:44,42.805,6.029,4330,1995,197.634,60.437,13.286
2017-10-20T12:01:44,42.805,6.029,4330,1995,197.536,60.406,13.286
2017-10-20T12:04:44,42.805,6.029,4330,1995,197.628,60.434,13.286
2017-10-20T12:07:44,42.805,6.029,4330,1995,197.667,60.447,13.286
2017-10-20T12:10:44,42.805,6.029,4330,1995,197.660,60.444,13.286
2017-10-20T12:13:44,42.805,6.029,4330,1995,197.628,60.435,13.286
2017-10-20T12:16:44,42.805,6.029,4330,1995,197.598,60.425,13.286
2017-10-20T12:19:44,42.805,6.029,4330,1995,197.717,60.462,13.286
2017-10-20T12:22:44,42.805,6.029,4330,1995,197.675,60.449,13.286
2017-10-20T12:25:44,42.805,6.029,4330,1995,197.678,60.450,13.286
2017-10-20T12:28:44,42.805,6.029,4330,1995,197.783,60.482,13.286
2017-10-20T12:31:44,42.805,6.029,4330,1995,197.761,60.476,13.287
2017-10-20T12:34:44,42.805,6.029,4330,1995,197.878,60.511,13.286
2017-10-20T12:37:44,42.805,6.029,4330,1995,198.060,60.567,13.286
2017-10-20T12:40:44,42.805,6.029,4330,1995,197.994,60.547,13.286
2017-10-20T12:43:44,42.805,6.029,4330,1995,198.044,60.562,13.286
2017-10-20T12:46:44,42.805,6.029,4330,1995,197.901,60.518,13.286
2017-10-20T12:49:44,42.805,6.029,4330,1995,197.976,60.541,13.286
2017-10-20T12:52:44,42.805,6.029,4330,1995,198.123,60.586,13.286
2017-10-20T12:55:44,42.805,6.029,4330,1995,198.129,60.588,13.286
2017-10-20T12:58:44,42.805,6.029,4330,1995,197.908,60.520,13.286
2017-10-20T13:01:44,42.805,6.029,4330,1995,197.970,60.540,13.286
2017-10-20T13:04:44,42.805,6.029,4330,1995,197.986,60.544,13.286
2017-10-20T13:07:44,42.805,6.029,4330,1995,198.055,60.565,13.286
2017-10-20T13:10:44,42.805,6.029,4330,1995,198.228,60.618,13.286
2017-10-20T13:13:44,42.805,6.029,4330,1995,198.208,60.612,13.286
2017-10-20T13:16:44,42.805,6.029,4330,1995,198.287,60.636,13.286
2017-10-20T13:19:44,42.805,6.029,4330,1995,198.199,60.609,13.286
2017-10-20T13:22:44,42.805,6.029,4330,1995,198.136,60.590,13.286
2017-10-20T13:25:44,42.805,6.029,4330,1995,198.172,60.601,13.286
2017-10-20T13:28:44,42.805,6.029,4330,1995,198.229,60.618,13.286
2017-10-20T13:31:44,42.805,6.029,4330,1995,198.245,60.623,13.286
2017-10-20T13:34:44,42.805,6.029,4330,1995,198.169,60.600,13.286
2017-10-20T13:37:44,42.805,6.029,4330,1995,198.338,60.652,13.286
2017-10-20T13:40:44,42.805,6.029,4330,1995,198.264,60.629,13.286
2017-10-20T13:43:44,42.805,6.029,4330,1995,198.227,60.618,13.286
2017-10-20T13:46:44,42.805,6.029,4330,1995,198.157,60.597,13.286
2017-10-20T13:49:44,42.805,6.029,4330,1995,198.295,60.639,13.286
2017-10-20T13:52:44,42.805,6.029,4330,1995,198.240,60.622,13.286
2017-10-20T13:55:44,42.805,6.029,4330,1995,198.325,60.648,13.286
2017-10-20T13:58:44,42.805,6.029,4330,1995,198.330,60.649,13.286
2017-10-20T14:01:44,42.805,6.029,4330,1995,198.334,60.650,13.286
2017-10-20T14:04:44,42.805,6.029,4330,1995,198.279,60.634,13.286
2017-10-20T14:07:44,42.805,6.029,4330,1995,198.383,60.665,13.286
2017-10-20T14:10:44,42.805,6.029,4330,1995,198.403,60.672,13.286
2017-10-20T14:13:44,42.805,6.029,4330,1995,198.361,60.659,13.286
2017-10-20T14:16:44,42.805,6.029,4330,1995,198.351,60.655,13.286
2017-10-20T14:19:44,42.805,6.029,4330,1995,198.315,60.645,13.286
2017-10-20T14:22:44,42.805,6.029,4330,1995,198.510,60.705,13.286
2017-10-20T14:25:44,42.805,6.029,4330,1995,198.501,60.702,13.286
2017-10-20T14:28:44,42.805,6.029,4330,1995,198.392,60.668,13.286
2017-10-20T14:31:44,42.805,6.029,4330,1995,198.383,60.665,13.286
2017-10-20T14:34:44,42.805,6.029,4330,1995,198.436,60.682,13.286
2017-10-20T14:37:44,42.805,6.029,4330,1995,198.290,60.637,13.286
2017-10-20T14:40:44,42.805,6.029,4330,1995,198.277,60.633,13.286
2017-10-20T14:43:44,42.805,6.029,4330,1995,198.285,60.636,13.286
2017-10-20T14:46:44,42.805,6.029,4330,1995,198.264,60.629,13.286
2017-10-20T14:49:44,42.805,6.029,4330,1995,198.384,60.666,13.286
2017-10-20T14:52:44,42.805,6.029,4330,1995,198.402,60.671,13.286
2017-10-20T14:55:44,42.805,6.029,4330,1995,198.421,60.677,13.286
2017-10-20T14:58:44,42.805,6.029,4330,1995,198.454,60.687,13.286
2017-10-20T15:01:44,42.805,6.029,4330,1995,198.388,60.667,13.286
2017-10-20T15:04:44,42.805,6.029,4330,1995,198.373,60.662,13.286
2017-10-20T15:07:44,42.805,6.029,4330,1995,198.380,60.665,13.286
2017-10-20T15:10:44,42.805,6.029,4330,1995,198.266,60.630,13.286
2017-10-20T15:13:44,42.805,6.029,4330,1995,198.369,60.661,13.286
2017-10-20T15:16:44,42.805,6.029,4330,1995,198.282,60.634,13.286
2017-10-20T15:19:44,42.805,6.029,4330,1995,198.485,60.697,13.286
2017-10-20T15:22:44,42.805,6.029,4330,1995,198.534,60.711,13.286
2017-10-20T15:25:44,42.805,6.029,4330,1995,198.438,60.682,13.286
2017-10-20T15:28:44,42.805,6.029,4330,1995,198.573,60.724,13.286
2017-10-20T15:31:44,42.805,6.029,4330,1995,198.657,60.749,13.286
2017-10-20T15:34:44,42.805,6.029,4330,1995,198.555,60.718,13.286
2017-10-20T15:37:44,42.805,6.029,4330,1995,198.506,60.703,13.286
2017-10-20T15:40:44,42.805,6.029,4330,1995,198.485,60.697,13.286
2017-10-20T15:43:44,42.805,6.029,4330,1995,198.463,60.690,13.286
2017-10-20T15:46:44,42.805,6.029,4330,1995,198.589,60.729,13.286
2017-10-20T15:49:44,42.805,6.029,4330,1995,198.506,60.703,13.286
2017-10-20T15:52:44,42.805,6.029,4330,1995,198.488,60.698,13.286
2017-10-20T15:55:44,42.805,6.029,4330,1995,198.446,60.685,13.286
2017-10-20T15:58:44,42.805,6.029,4330,1995,198.401,60.671,13.286
2017-10-20T16:01:44,42.805,6.029,4330,1995,198.545,60.715,13.286
2017-10-20T16:04:44,42.805,6.029,4330,1995,198.589,60.728,13.286
2017-10-20T16:07:44,42.805,6.029,4330,1995,198.684,60.757,13.286
2017-10-20T16:10:44,42.805,6.029,4330,1995,198.655,60.749,13.286
2017-10-20T16:13:44,42.805,6.029,4330,1995,198.567,60.722,13.286
2017-10-20T16:16:44,42.805,6.029,4330,1995,198.671,60.753,13.286
2017-10-20T16:19:44,42.805,6.029,4330,1995,198.882,60.818,13.286
2017-10-20T16:22:44,42.805,6.029,4330,1995,198.631,60.741,13.286
2017-10-20T16:25:44,42.805,6.029,4330,1995,198.582,60.727,13.286
2017-10-20T16:28:44,42.805,6.029,4330,1995,198.649,60.747,13.286
2017-10-20T16:31:44,42.805,6.029,4330,1995,198.678,60.756,13.286
2017-10-20T16:34:44,42.805,6.029,4330,1995,198.814,60.797,13.286
2017-10-20T16:37:44,42.805,6.029,4330,1995,198.917,60.829,13.286
2017-10-20T16:40:44,42.805,6.029,4330,1995,198.971,60.845,13.286
2017-10-20T16:43:44,42.805,6.029,4330,1995,199.016,60.858,13.286
2017-10-20T16:46:44,42.805,6.029,4330,1995,199.061,60.873,13.286
2017-10-20T16:49:44,42.805,6.029,4330,1995,198.999,60.854,13.286
2017-10-20T16:52:44,42.805,6.029,4330,1995,198.898,60.824,13.287
2017-10-20T16:55:44,42.805,6.029,4330,1995,198.951,60.839,13.286
2017-10-20T16:58:44,42.805,6.029,4330,1995,199.043,60.867,13.286
2017-10-20T17:01:44,42.805,6.029,4330,1995,199.048,60.869,13.286
2017-10-20T17:04:44,42.805,6.029,4330,1995,199.180,60.909,13.286
2017-10-20T17:07:44,42.805,6.029,4330,1995,199.146,60.898,13.286
2017-10-20T17:10:44,42.805,6.029,4330,1995,199.160,60.903,13.286
2017-10-20T17:13:44,42.805,6.029,4330,1995,199.191,60.912,13.286
2017-10-20T17:16:44,42.805,6.029,4330,1995,199.128,60.893,13.286
2017-10-20T17:19:44,42.805,6.029,4330,1995,199.108,60.887,13.286
2017-10-20T17:22:44,42.805,6.029,4330,1995,199.146,60.898,13.286
2017-10-20T17:25:44,42.805,6.029,4330,1995,199.098,60.884,13.286
2017-10-20T17:28:44,42.805,6.029,4330,1995,199.024,60.862,13.286
2017-10-20T17:31:44,42.805,6.029,4330,1995,199.066,60.874,13.286
2017-10-20T17:34:44,42.805,6.029,4330,1995,199.134,60.895,13.286
2017-10-20T17:37:44,42.805,6.029,4330,1995,199.114,60.889,13.286
2017-10-20T17:40:44,42.805,6.029,4330,1995,199.128,60.893,13.286
2017-10-20T17:43:44,42.805,6.029,4330,1995,199.121,60.891,13.286
2017-10-20T17:46:44,42.805,6.029,4330,1995,199.180,60.909,13.286
2017-10-20T17:49:44,42.805,6.029,4330,1995,199.235,60.925,13.286
2017-10-20T17:52:44,42.805,6.029,4330,1995,199.205,60.916,13.286
2017-10-20T17:55:44,42.805,6.029,4330,1995,199.232,60.925,13.286
2017-10-20T17:58:44,42.805,6.029,4330,1995,199.114,60.889,13.286
2017-10-20T18:01:44,42.805,6.029,4330,1995,199.193,60.913,13.286
2017-10-20T18:04:44,42.805,6.029,4330,1995,199.115,60.889,13.286
2017-10-20T18:07:44,42.805,6.029,4330,1995,199.093,60.882,13.286